Regional Weather Roundup
Issued by NWS Jackson, KY

Home | Current Version | Previous Version | Graphics & Text | Print | Product List | Glossary On
Versions: 1 2 3 4 5 6 7 8 9 10 11 12 13 14 15 16 17 18 19 20 21 22 23 24 25 26 27 28 29 30 31 32 33 34 35 36 37 38 39 40 41 42 43 44 45 46 47 48 49 50
000
ASUS43 KJKL 212011
RWRJKL

EAST KENTUCKY HOURLY WEATHER ROUNDUP
NATIONAL WEATHER SERVICE JACKSON KY
400 PM EDT TUE OCT 21 2014

NOTE: "FAIR" INDICATES FEW OR NO CLOUDS BELOW 12,000 FEET WITH
NO SIGNIFICANT WEATHER AND/OR OBSTRUCTIONS TO VISIBILITY.

* THESE REPORTS ARE NOT UNDER NWS QUALITY CONTROL AND MAY NOT
  REPORT WEATHER SUCH AS PRECIPITATION AND FOG.

KYZ079-080-083-085-087-088-110-112-115-119-120-212100
...EASTERN KENTUCKY...

CITY           SKY/WX    TMP DP  RH WIND       PRES   REMARKS
JACKSON        CLOUDY    53  38  56 NW8       30.03R
LONDON         CLOUDY    58  41  53 N14G20    30.04R
SOMERSET*      CLOUDY    59  41  51 NW10G17   30.06R
MONTICELLO*    PTSUNNY   65  45  48 NW10G92   30.05S SQUALL
WILLIAMSBURG*  PTSUNNY   59  45  58 CALM      30.03R
MIDDLESBORO*   MOSUNNY   62  42  48 W12       30.01R
HARLAN APT*    CLOUDY    59  39  47 NW9G22    30.01S
HAZARD APT*    CLOUDY    55  41  58 NW8       30.03R
BLACK MTN*       N/A     45  39  81 VRB3        N/A
PIKEVILLE APT* CLOUDY    52  39  62 W8        30.01R
BIG SANDY*     CLOUDY    53  40  62 NW8       30.02R
MOREHEAD APT*  CLOUDY    54  39  58 VRB6G14   30.06R
$$

KYZ035-036-041-042-044-050-067-078-099-212100
...CENTRAL KENTUCKY...

CITY           SKY/WX    TMP DP  RH WIND       PRES   REMARKS
MT STERLING*   CLOUDY    54  41  62 N12       30.06R
FLEMING/MASON* CLOUDY    52  39  62 N10       30.06R
DANVILLE*      CLOUDY    54  41  62 N9G17     30.07R
RICHMOND*      CLOUDY    55  39  54 NW9G16    30.05R
LEXINGTON      CLOUDY    57  40  52 NW10      30.06R
FRANKFORT      CLOUDY    56  40  55 NW9       30.06R
$$

KYZ091>093-OHZ055-061-077-WVZ005-015-034-035-042-212100
...SOUTHERN OHIO/WEST VIRGINIA...

CITY           SKY/WX    TMP DP  RH WIND       PRES   REMARKS
COVINGTON      CLOUDY    53  39  59 N10       30.06R
COLUMBUS       CLOUDY    49  44  83 N18G24    30.02R
DAYTON         CLOUDY    53  44  71 N13       30.07R
WILMINGTON     LGT RAIN  51  42  71 N14       30.05R
HUNTINGTON     CLOUDY    51  42  71 W8        30.02R
CHARLESTON     LGT RAIN  52  43  71 NW9G18    29.99R
PINEVILLE*     CLOUDY    56  46  69 MISG      30.01R
BECKLEY        PTSUNNY   47  41  80 NW14G21   29.96R
BLUEFIELD      CLOUDY    53  39  59 W14G20    29.95R
$$

VAZ002-007-008-TNZ017-027-036-066-071-212100
...SOUTHWEST VIRGINIA/EAST TENNESSEE...

CITY           SKY/WX    TMP DP  RH WIND       PRES   REMARKS
WISE*          CLOUDY    52  37  58 W12G17    30.01S
JONESVILLE*    CLEAR     63  39  42 NW9G17    30.02R
ABINGDON*      CLOUDY    58  40  52 NW8       29.97R
BRISTOL        PTSUNNY   60  41  49 NW13      29.97R
KNOXVILLE      MOSUNNY   67  44  43 W9        29.98S
OAK RIDGE      SUNNY     70  42  36 VRB7      30.00S
CROSSVILLE     MOSUNNY   63  42  46 N12       30.03S
NASHVILLE      MOSUNNY   73  46  38 NW9       30.03S
$$

...KEY TO REMARKS...
VSB - VISIBILITY IN MILES
WCI - WIND CHILL INDEX
HX  - HEAT INDEX

$$



USA.gov is the U.S. government's official web portal to all federal, state and local government web resources and services.